Overview Statistics Trail Chart Weather Telemetry Raw packets
 

This is the latest recevied weather packets stored in our database for station/object KW4UJ. If no packets are shown the sender has not sent any weather packets the latest 10 day(s).

<< 64 65 66 67 68 69 70 >>
Time Temp. Humidity Pressure Rain* Wind** Luminosity Snow
1788184676 25° C 89% 1019.7 hPa 0 mm - 151 W/m² -
1788184372 25° C 89% 1019.9 hPa 0 mm - 145 W/m² -
1788184067 25° C 88% 1019.9 hPa 0 mm - 101 W/m² -
1788183764 25° C 87% 1019.8 hPa 0 mm - 149 W/m² -
1788183463 25.56° C 86% 1019.7 hPa 0 mm - 164 W/m² -
1788183163 25.56° C 86% 1019.8 hPa 0 mm - 165 W/m² -
1788182858 25° C 88% 1019.9 hPa 0 mm - 227 W/m² -
1788182553 25° C 88% 1020 hPa 0 mm - 134 W/m² -
1788182253 24.44° C 89% 1019.9 hPa 0 mm - 162 W/m² -
1788181950 23.89° C 91% 1019.7 hPa 0 mm - 151 W/m² -
1788181644 23.33° C 94% 1019.9 hPa 0 mm - 81 W/m² -
1788181340 22.78° C 96% 1019.8 hPa 0 mm - 120 W/m² -
1788181038 22.22° C 98% 1020 hPa 0 mm - 104 W/m² -
1788180735 22.22° C 98% 1020.2 hPa 0 mm - 90 W/m² -
1788180435 22.22° C 99% 1020 hPa 0 mm - 74 W/m² -
1788180144 22.22° C 99% 1020.1 hPa 0 mm - 77 W/m² -
1788179831 22.22° C 99% 1020.1 hPa 0 mm - 79 W/m² -
1788179530 21.67° C 99% 1019.9 hPa 0 mm - 76 W/m² -
1788179230 21.67° C 99% 1019.7 hPa 0 mm - 70 W/m² -
1788178926 21.67° C 99% 1019.8 hPa 0 mm - 60 W/m² -
1788178637 21.67° C 99% 1019.7 hPa 0 mm - 59 W/m² -
1788178322 21.67° C 99% 1019.6 hPa 0 mm - 55 W/m² -
1788178017 21.11° C 99% 1019.7 hPa 0 mm - 48 W/m² -
1788177711 21.11° C 99% 1019.6 hPa 0 mm - 56 W/m² -
1788177407 21.11° C 99% 1019.6 hPa 0 mm - 59 W/m² -

* Rain latest hour (hover to see other rain measurements)
** Current wind speed in m/s (hover to see current wind gust speed)